Presure
143 111 149 173 127 132 162 145 138 109 162 125 169 119 134 148 113 166 168 150 123 153 108 162 131 166 168 142 171 168 167 133 141 129 185 179 160 176 172 156 193 142 189 188 188
168 158 129 165 150 173 158 162 161 139 147 138 123 148 141 153 169 125 160 156 125 134 115 150 168 164 135 166 173 155 175 163 161 140 170 156 161 165 155 181 149 180 189 167 183
172 172 174 101 173 161 155 162 169 162 114 162 140 162 164 100 154 155 163 163 133 107 167 172 174 169 115 152 148 181 163 154 110 166 157 157 162 167 177 183 170 170 175 174 191
125 149 161 181 184 183 105 187 156 141 161 137 159 160 163 158 146 160 158 153 167 164 129 146 114 101 159 164 170 164 153 155 168 175 150 167 115 167 175 191 169 116 144 146 146
187 177 162 163 173 139 187 179 192 173 176 160 165 162 123 144 174 141 170 169 142 150 172 143 154 182 167 170 172 161 154 164 161 155 125 143 172 149 148 148 171 188 172 191 152
181 180 193 163 180 184 175 180 150 132 194 137 162 169 141 161 165 170 174 177 159 182 179 179 164 165 143 157 160 170 167 166 150 161 129 176 182 169 171 158 165 179 183 158 175
192 133 159 129 174 178 140 140 168 154 105 189 184 157 173 146 160 163 167 180 141 161 162 149 156 165 176 168 172 179 171 169 169 136 174 168 176 160 160 183 132 182 166 189 162
145 185 166 175 108 156 182 183 187 184 184 190 159 171 174 173 153 163 190 180 153 174 173 169 179 170 150 174 165 169 164 170 172 173 169 175 178 167 167 190 169 183 177 167 176
153 176 146 159 171 176 151 161 146 174 162 203 169 167 162 179 147 145 180 164 160 177 167 162 143 173 165 170 157 156 164 165 146 165 176 174 175 161 157 181 175 162 156 164 164
184 183 176 167 168 163 174 151 146 181 188 155 143 147 173 175 170 149 157 177 165 160 176 171 167 158 171 125 164 164 176 144 186 175 196 171 193 187 193 170 157 179 169 151 176
152 182 150 153 176 154 157 154 146 170 153 154 160 149 188 151 186 165 109 172 157 151 176 179 180 169 168 166 184 181 175 166 165 189 172 187 191 180 189 178 131 161 176 160 176
168 170 176 160 125 184 162 161 161 186 164 176 144 167 150 163 148 179 155 190 186 208 191 185 179 170 147 174 187 179 178 178 187 189 181 190 194 175 174 175 172 177 148 164 164
177 185 207 123 169 165 187 148 161 163 163 171 159 166 144 143 169 159 166 167 168 177 196 194 161 171 180 186 182 181 190 188 168 171 152 177 191 173 177 167 167 162 171 159 135
176 188 179 185 206 175 176 178 174 168 154 173 193 164 184 190 182 174 188 185 176 170 186 177 172 170 189 185 161 177 168 177 166 179 144 170 150 185 172 165 185 176 182 187 192
159 163 200 168 194 193 196 189 160 143 182 134 174 164 181 157 158 166 154 175 186 163 178 166 158 187 164 170 191 183 170 169 166 174 197 153 187 69 79 130 171 188 193 207 209
179 180 189 204 199 163 200 201 171 180 200 188 171 183 81 169 170 174 167 171 159 185 168 193 139 168 170 169 158 180 172 181 198 184 174 144 80 82 187 168 186 179 181 85 82
187 213 193 183 183 188 198 199 171 167 209 188 164 173 174 170 223 169 177 153 213 209 190 194 196 183 188 185 187 183 193 179 199 187 200 194 202 130 136 80 84 213 160 189 215
209 193 176 182 197 172 199 194 178 193 210 216 176 203 198 192 200 224 190 197 204 211 211 204 214 207 186 191 193 187 191 194 192 197 207 217 237 248 199 143 85 188 205 220 211
215 181 225 188 215 185 189 180 184 174 195 211 185 204 229 194 204 210 231 223 206 215 218 207 223 217 213 209 207 206 219 206 198 206 214 85 199 208 188 146 215 208 204 224 210
224 228 224 217 200 226 202 206 221 199 210 223 219 233 209 206 225 233 225 208 196 211 228 220 203 208 221 211 220 219 215 232 230 209 225 238 230 211 208 208 211 222 224 217 223
237 225 246 243 242 246 232 230 200 231 204 231 235 223 206 204 223 231 234 227 223 235 207 239 226 234 205 216 209 206 205 224 210 212 200 206 200 204 215 219 204 198 227 242 231
267 266 260 255 260 262 268 268 273 255 252 256 261 256 250 244 248 249 246 242 243 230 244 232 236 243 243 219 226 207 232 224 222 220 226 226 232 236 203 226 209 201 203 211 193
293 285 324 300 338 322 298 303 300 280 271 271 264 273 277 270 272 265 254 252 240 246 245 240 243 232 229 221 229 229 225 232 222 225 239 219 217 237 224 215 213 220 223 207 210
417 422 425 416 404 383 370 349 338 334 307 312 307 297 289 282 284 272 262 263 265 257 252 253 243 242 245 254 238 232 226 240 215 232 219 221 214 230 245 234 232 229 226 203 269
399 402 383 382 393 384 343 348 353 353 340 355 354 338 322 303 298 288 287 281 275 260 257 244 247 251 250 242 245 245 247 235 225 215 225 242 245 246 246 238 227 239 235 227 227
329 339 327 373 366 364 354 343 350 349 346 349 360 344 332 320 307 298 297 289 282 267 270 263 258 259 258 249 253 246 242 245 249 245 246 245 244 244 242 245 238 236 231 228 227
304 307 316 311 310 333 343 343 344 343 339 335 339 338 342 342 345 342 335 332 317 305 298 286 287 285 282 273 255 282 264 260 266 251 253 250 254 250 249 245 241 238 239 236 237
Wind_Speed
77 69 73 79 65 77 86 76 79 72 80 68 80 71 71 72 74 81 82 71 75 75 70 72 71 78 72 65 76 74 71 70 67 54 76 76 63 72 69 66 69 52 66 58 61
85 81 74 86 83 82 85 85 87 80 76 75 69 74 77 76 89 79 74 75 73 67 77 63 91 82 78 87 84 66 74 76 72 71 71 68 66 66 65 70 66 59 66 55 61
90 90 87 74 88 88 87 90 89 88 76 86 80 86 87 67 88 79 92 90 69 56 89 92 92 83 61 76 76 83 76 77 55 81 63 62 67 66 74 75 66 72 50 58 68
73 82 90 87 91 88 66 93 87 83 90 76 88 88 90 87 79 94 88 79 97 88 82 73 74 44 82 83 87 84 79 74 86 86 61 73 52 70 73 70 72 53 54 76 70
90 89 81 84 91 79 85 87 89 94 95 91 95 92 67 75 98 75 102 104 71 81 97 90 80 92 83 84 85 82 79 83 80 77 71 75 78 70 61 72 59 73 46 67 64
89 91 85 87 90 88 90 90 80 86 93 80 93 93 73 85 93 98 93 104 99 102 102 101 88 88 72 80 84 90 85 86 74 84 58 85 86 74 77 66 65 71 66 42 67
90 79 92 75 93 92 81 82 96 86 72 95 97 82 99 88 94 93 101 102 93 97 95 73 78 91 98 94 96 93 89 91 94 83 89 77 83 73 68 82 68 76 58 68 53
99 91 101 95 69 97 91 92 90 91 96 96 83 91 88 103 87 96 98 99 84 93 101 102 102 94 80 99 93 95 86 97 100 92 91 92 86 87 80 78 75 76 73 60 68
88 97 92 94 98 101 95 96 81 99 95 86 90 85 91 94 91 82 101 99 87 103 101 99 85 104 100 89 74 83 88 85 77 86 101 91 89 78 77 78 80 77 60 69 59
95 97 96 103 107 102 106 96 84 97 94 85 87 69 84 97 84 84 87 102 95 94 104 105 103 87 105 68 96 98 106 89 106 106 101 86 88 88 81 83 62 76 69 78 77
101 103 102 108 109 106 109 106 105 109 72 106 106 80 95 82 95 105 77 107 98 79 109 112 107 97 108 102 113 110 107 94 95 104 87 95 89 87 82 85 90 60 80 68 81
118 107 110 117 82 110 112 120 101 110 109 104 75 102 97 112 87 98 106 97 104 94 112 110 103 111 78 96 112 107 111 110 107 103 105 102 87 88 85 86 75 83 77 75 79
115 108 97 93 119 123 117 99 119 122 104 114 108 110 81 78 115 89 113 111 109 96 101 109 86 100 112 111 111 108 106 108 87 93 81 98 96 83 93 77 84 64 81 76 78
125 111 119 116 106 118 126 118 129 130 86 102 99 101 103 108 108 111 105 114 112 107 107 91 102 111 112 114 97 106 107 104 88 105 82 102 64 95 99 84 102 98 87 91 91
121 124 113 120 109 117 124 118 127 105 138 74 123 119 112 111 108 123 109 120 115 114 126 106 103 114 106 113 116 114 111 108 94 103 112 64 119 21 17 59 91 100 97 106 98
126 133 123 116 121 128 128 129 144 139 132 126 94 126 31 129 126 129 123 126 107 126 129 108 92 121 122 122 92 114 110 115 116 114 93 70 24 37 95 107 59 68 89 19 21
130 121 134 128 129 134 133 139 145 125 129 124 121 126 129 114 114 121 128 97 121 125 128 125 120 123 123 124 122 120 123 113 119 113 118 109 118 55 52 8 3 102 67 87 93
132 136 142 144 130 143 134 141 143 146 127 128 137 144 139 134 128 120 129 124 124 124 127 128 123 122 125 129 126 125 123 123 114 116 121 117 110 91 92 61 32 93 93 92 90
135 141 136 140 131 147 148 143 153 124 133 135 137 139 135 135 128 127 123 123 124 123 126 133 123 119 127 132 133 125 129 130 123 126 123 30 78 88 86 60 95 95 93 88 79
143 145 142 140 147 145 152 152 145 149 145 145 147 142 142 137 133 131 126 130 127 125 125 126 121 116 121 128 125 118 115 113 118 107 122 103 98 96 90 88 90 92 87 85 80
150 147 145 149 150 154 153 151 145 149 148 152 150 149 141 139 141 137 135 131 130 129 126 123 128 114 122 121 122 118 115 111 113 113 98 105 90 88 89 95 84 76 78 79 78
161 157 150 156 158 157 155 152 154 150 152 150 146 144 144 148 146 139 135 137 133 128 126 122 124 118 109 117 120 122 114 118 119 114 110 107 103 100 82 97 88 76 70 71 70
160 158 145 150 143 148 147 150 151 151 151 150 146 145 142 143 141 135 132 129 132 133 128 124 125 118 112 112 116 120 116 113 111 112 112 96 98 95 95 96 95 98 87 76 75
54 50 47 52 53 61 72 103 111 111 124 124 127 130 136 139 134 132 131 129 124 125 127 123 122 122 120 112 115 119 113 110 110 113 109 106 96 99 85 85 90 91 91 80 71
46 41 46 49 43 47 69 74 70 73 84 81 90 102 111 118 120 121 122 119 120 121 124 122 122 121 115 115 117 117 113 110 112 113 112 109 104 97 94 88 88 82 80 89 91
42 36 41 34 34 40 47 57 56 57 60 65 66 78 90 102 111 114 116 117 117 121 126 126 125 122 118 115 121 122 114 110 110 111 116 108 105 98 97 91 88 85 84 85 90
44 43 41 42 42 39 39 45 48 51 56 56 56 59 62 66 68 75 83 82 93 102 112 110 109 113 112 115 116 113 108 111 108 109 109 110 100 98 100 96 89 90 87 83 84
Wind_Direction
275 266 274 264 270 279 276 280 283 271 281 263 280 268 273 283 272 286 289 283 264 288 284 288 275 294 288 273 292 294 293 294 282 275 300 300 293 302 300 295 305 299 300 301 299
268 271 272 264 272 264 271 269 273 271 284 269 263 284 274 286 282 272 286 285 265 288 278 284 289 285 281 292 295 290 294 293 290 269 297 297 291 293 290 304 298 299 300 299 307
268 267 264 266 263 266 269 270 263 268 263 273 267 273 273 286 281 283 283 283 285 276 283 283 284 280 292 290 287 294 293 285 295 297 285 286 294 302 303 301 297 293 303 303 298
271 269 271 267 264 263 277 256 263 263 268 276 272 273 267 274 284 275 282 282 280 282 267 281 287 273 284 285 288 288 291 288 292 295 274 294 296 299 304 302 295 298 299 295 283
268 267 268 267 267 268 260 261 260 261 258 268 267 268 276 280 265 271 271 275 272 274 278 282 280 281 282 283 283 277 275 288 286 279 277 274 297 296 280 288 300 301 298 298 296
266 264 263 264 266 264 266 264 269 268 261 271 263 267 275 270 273 269 274 272 273 276 278 280 283 285 271 283 287 284 287 285 278 285 280 293 294 292 294 283 301 303 302 270 301
266 267 274 267 267 262 271 269 265 274 272 262 260 264 264 275 276 276 274 273 277 278 280 277 283 285 281 283 285 283 285 286 285 267 293 287 296 286 286 295 297 299 292 297 284
277 263 265 264 272 273 264 262 260 261 261 262 270 262 268 264 279 276 269 270 280 272 277 280 278 281 284 282 284 285 284 281 285 290 289 289 293 290 293 291 297 295 296 293 297
263 263 271 269 263 262 277 274 273 269 277 264 269 266 273 262 265 276 267 274 268 269 274 277 282 277 281 280 280 278 280 286 281 285 284 287 290 282 290 290 293 285 280 293 290
257 257 262 266 264 269 259 277 271 269 260 276 256 277 257 263 268 279 278 269 267 275 269 270 273 279 277 271 277 280 280 273 280 282 281 283 283 284 282 289 284 289 294 290 298
279 255 279 278 256 277 275 278 275 266 267 280 279 279 257 273 259 272 277 270 263 279 269 268 270 270 275 275 275 277 278 281 283 278 283 281 283 289 280 287 281 287 292 283 295
265 265 257 271 267 262 269 273 270 261 268 259 272 267 281 275 273 261 282 261 262 271 267 269 270 270 263 276 274 272 276 278 277 274 275 280 279 285 285 288 288 288 276 287 284
260 258 260 258 263 269 258 261 269 272 273 259 274 267 269 269 272 266 272 272 272 275 267 265 266 276 272 270 271 273 273 271 274 275 268 285 279 281 284 284 283 284 286 283 287
256 262 256 256 269 260 266 261 264 265 273 258 269 267 267 269 266 264 265 264 266 271 265 266 266 272 268 268 280 275 277 276 277 278 262 283 260 278 280 278 285 283 291 291 292
272 271 264 265 262 263 261 259 275 269 261 252 260 273 262 277 277 270 281 271 262 272 265 275 281 264 280 275 266 271 276 280 278 282 275 280 280 260 286 287 286 288 288 286 294
266 257 256 265 261 269 267 265 266 270 263 260 264 259 253 266 267 269 272 273 276 266 273 265 268 274 271 273 276 272 272 274 272 274 280 282 272 273 284 284 279 280 284 225 249
263 265 259 265 266 260 265 268 269 274 271 267 276 273 272 272 262 274 274 264 267 266 265 264 262 267 264 266 266 272 269 276 273 277 277 276 277 288 283 258 177 281 278 286 288
266 255 265 260 264 266 270 262 270 266 268 271 271 268 266 265 267 267 266 265 264 265 263 263 261 261 267 268 267 273 273 273 277 273 276 279 283 279 279 276 288 280 281 283 285
267 263 268 256 266 258 263 267 267 274 268 267 271 271 270 269 264 266 266 262 265 262 262 261 262 261 264 264 267 270 272 273 274 278 279 277 276 276 274 278 276 277 279 280 278
267 267 266 265 264 267 265 266 266 267 267 268 269 269 266 268 268 268 265 262 268 264 266 265 266 264 264 265 266 269 269 271 270 277 276 277 276 273 275 277 277 277 277 277 278
269 267 269 268 267 267 265 264 264 266 265 267 265 265 267 270 266 266 266 266 268 267 266 266 263 262 264 265 266 268 270 271 271 271 276 276 274 272 278 278 276 275 277 275 274
270 271 269 269 269 269 269 269 267 266 267 269 267 265 264 264 267 266 267 266 267 266 267 264 265 265 265 264 266 267 269 270 272 274 274 272 273 273 278 277 275 274 273 272 265
270 269 268 268 265 265 266 265 264 265 267 266 265 264 265 263 263 263 261 262 264 264 263 265 264 263 264 263 264 265 269 268 271 269 269 271 275 272 274 273 272 274 273 266 265
262 260 253 253 249 250 261 261 260 257 260 260 259 260 262 263 262 261 260 261 261 261 261 261 261 264 265 261 261 264 266 265 269 269 269 272 271 271 269 266 267 271 273 265 264
261 260 259 257 249 239 248 258 260 260 259 259 255 255 256 259 260 261 259 257 258 258 259 260 260 262 261 264 265 263 261 261 265 269 270 269 272 271 268 264 264 265 264 267 271
266 265 262 256 247 245 246 249 253 254 256 256 258 257 255 254 256 257 258 259 258 257 259 258 260 260 258 260 259 260 264 266 265 262 264 264 267 267 266 265 265 263 262 263 265
262 260 260 258 255 254 252 252 255 255 253 255 256 256 256 257 257 255 253 254 255 257 257 260 262 261 260 258 257 260 259 259 260 260 262 264 265 263 265 265 263 264 262 261 261